Terminal Aerodrome Forecast
Issued by NWS

Home | Current Version | Previous Version | Text Only | Print | Product List | Glossary On
Versions: 1 2 3 4 5 6 7 8 9 10 11 12 13 14 15 16 17 18 19 20 21 22 23
000
FTUS46 KPDT 150322 AAA
TAFBDN
TAF AMD
KBDN 150322Z 1503/1524 34003KT P6SM BKN250
      TEMPO 1503/1506 1SM BR BKN006
     FM150600 VRB06KT 1/2SM FZFG OVC001
     FM151600 17005KT 5SM BR SCT003 SCT060
     FM152100 29006KT 6SM -RA BR SCT011 OVC060=

USA.gov is the U.S. government's official web portal to all federal, state and local government web resources and services.